Regional Weather Roundup
Issued by NWS Jackson, KY

Home | Current Version | Previous Version | Graphics & Text | Print | Product List | Glossary On
Versions: 1 2 3 4 5 6 7 8 9 10 11 12 13 14 15 16 17 18 19 20 21 22 23 24 25 26 27 28 29 30 31 32 33 34 35 36 37 38 39 40 41 42 43 44 45 46 47 48 49 50
000
ASUS43 KJKL 251010
RWRJKL

EAST KENTUCKY HOURLY WEATHER ROUNDUP
NATIONAL WEATHER SERVICE JACKSON KY
600 AM EDT MON MAY 25 2015

NOTE: "FAIR" INDICATES FEW OR NO CLOUDS BELOW 12,000 FEET WITH
NO SIGNIFICANT WEATHER AND/OR OBSTRUCTIONS TO VISIBILITY.

* THESE REPORTS ARE NOT UNDER NWS QUALITY CONTROL AND MAY NOT
  REPORT WEATHER SUCH AS PRECIPITATION AND FOG.

KYZ079-080-083-085-087-088-110-112-115-119-120-251100
...EASTERN KENTUCKY...

CITY           SKY/WX    TMP DP  RH WIND       PRES   REMARKS
JACKSON        PTCLDY    65  50  58 CALM      30.19S
LONDON         PTCLDY    65  50  58 CALM      30.18S
SOMERSET*      MOCLDY    68  52  56 S7        30.17S
MONTICELLO*    MOCLDY    71  55  56 S13       30.18S
MIDDLESBORO*   PTCLDY    57  55  94 CALM      30.23S
HARLAN APT*    SUNNY     63  50  63 CALM      30.23S
BLACK MTN*       N/A     55  50  82 S7          N/A
BIG SANDY*     SUNNY     67  51  56 S6        30.19S
MOREHEAD APT*  MOSUNNY   64  54  68 S5        30.17S
$$

KYZ035-036-041-042-044-050-067-078-099-251100
...CENTRAL KENTUCKY...

CITY           SKY/WX    TMP DP  RH WIND       PRES   REMARKS
MT STERLING*   CLOUDY    68  54  60 S7        30.16S
FLEMING/MASON* CLEAR     66  54  63 S8        30.15S
DANVILLE*      CLOUDY    68  54  60 S8        30.15S
RICHMOND*      CLOUDY    70  52  52 S9        30.14S
LEXINGTON      MOCLDY    69  55  60 S12       30.13S
FRANKFORT      MOCLDY    69  56  62 S7        30.10S
$$

KYZ091>093-OHZ055-061-077-WVZ005-015-034-035-042-251100
...SOUTHERN OHIO/WEST VIRGINIA...

CITY           SKY/WX    TMP DP  RH WIND       PRES   REMARKS
COVINGTON      LGT RAIN  70  56  61 S12       30.10R
COLUMBUS       MOCLDY    66  54  65 SE6       30.11S
DAYTON         CLOUDY    72  55  55 S15G23    30.09S
WILMINGTON     CLOUDY    69  53  56 S13       30.11S
HUNTINGTON     CLEAR     58  53  84 E6        30.16S
CHARLESTON     PTCLDY    58  53  84 CALM      30.20R
PINEVILLE*     CLEAR     52  52 100 MISG      30.31R
BECKLEY        CLEAR     59  49  69 SE8       30.28R
BLUEFIELD      CLEAR     62  48  60 S3        30.30R
$$

VAZ002-007-008-TNZ017-027-036-066-071-251100
...SOUTHWEST VIRGINIA/EAST TENNESSEE...

CITY           SKY/WX    TMP DP  RH WIND       PRES   REMARKS
WISE*          CLEAR     61  48  63 S8        30.28F
JONESVILLE*    SUNNY     59  54  82 CALM      30.26S
ABINGDON*      CLEAR     56  51  84 CALM      30.28S
BRISTOL        PTCLDY    55  51  86 CALM      30.26S
KNOXVILLE      PTCLDY    60  55  83 NE3       30.21R
OAK RIDGE      CLEAR     63  55  75 CALM      30.23S
CROSSVILLE       N/A     67  55  65 S10G23    30.23R
NASHVILLE      CLOUDY    72  59  63 S13G22    30.10S
$$

...KEY TO REMARKS...
VSB - VISIBILITY IN MILES
WCI - WIND CHILL INDEX
HX  - HEAT INDEX

$$



USA.gov is the U.S. government's official web portal to all federal, state and local government web resources and services.